Time,TemperatureF,DewpointF,PressureIn,WindDirection,WindDirectionDegrees,WindSpeedMPH,WindSpeedGustMPH,Humidity,HourlyPrecipIn,Conditions,Clouds,dailyrainin,SoftwareType,DateUTC
2013-02-21 00:00:00,22.9,13.6,30.18,NW,309,1.0,2.0,67,0.00,,---,0.00,VWS V14.01,2013-02-21 05:00:00,
2013-02-21 00:05:00,22.8,13.8,30.18,NW,309,0.0,1.0,68,0.00,,---,0.00,VWS V14.01,2013-02-21 05:05:00,
2013-02-21 00:10:00,22.7,13.7,30.18,NW,309,0.0,1.0,68,0.00,,---,0.00,VWS V14.01,2013-02-21 05:10:00,
2013-02-21 00:15:00,22.7,13.7,30.18,NW,309,0.0,1.0,68,0.00,,---,0.00,VWS V14.01,2013-02-21 05:15:00,
2013-02-21 00:20:00,22.7,13.7,30.18,NW,309,0.0,1.0,68,0.00,,---,0.00,VWS V14.01,2013-02-21 05:20:00,
2013-02-21 00:25:00,22.6,13.6,30.18,NW,309,0.0,1.0,68,0.00,,---,0.00,VWS V14.01,2013-02-21 05:25:00,
2013-02-21 00:30:00,22.5,13.6,30.18,NW,309,0.0,1.0,68,0.00,,---,0.00,VWS V14.01,2013-02-21 05:30:00,
2013-02-21 00:35:00,22.7,13.4,30.18,NW,309,1.0,1.0,67,0.00,,---,0.00,VWS V14.01,2013-02-21 05:35:00,
2013-02-21 00:40:00,22.9,13.6,30.18,NW,309,1.0,1.0,67,0.00,,---,0.00,VWS V14.01,2013-02-21 05:40:00,
2013-02-21 00:45:00,23.1,13.4,30.18,NW,309,0.0,2.0,66,0.00,,---,0.00,VWS V14.01,2013-02-21 05:45:00,
2013-02-21 00:50:00,23.2,13.2,30.18,NW,308,0.0,3.0,65,0.00,,---,0.00,VWS V14.01,2013-02-21 05:50:00,
2013-02-21 00:55:00,23.3,13.3,30.18,NW,308,0.0,3.0,65,0.00,,---,0.00,VWS V14.01,2013-02-21 05:55:00,
2013-02-21 01:00:00,23.3,13.3,30.18,NW,308,0.0,3.0,65,0.00,,---,0.00,VWS V14.01,2013-02-21 06:00:00,
2013-02-21 01:05:00,23.1,13.4,30.18,NW,308,0.0,2.0,66,0.00,,---,0.00,VWS V14.01,2013-02-21 06:05:00,
2013-02-21 01:10:00,23.0,13.4,30.18,NW,308,0.0,2.0,66,0.00,,---,0.00,VWS V14.01,2013-02-21 06:10:00,
2013-02-21 01:15:00,22.9,13.3,30.18,NW,308,1.0,2.0,66,0.00,,---,0.00,VWS V14.01,2013-02-21 06:15:00,
2013-02-21 01:20:00,22.8,13.5,30.18,NW,308,1.0,2.0,67,0.00,,---,0.00,VWS V14.01,2013-02-21 06:20:00,
2013-02-21 01:25:00,22.9,13.6,30.18,NW,307,0.0,3.0,67,0.00,,---,0.00,VWS V14.01,2013-02-21 06:25:00,
2013-02-21 01:30:00,22.9,13.3,30.18,NW,308,0.0,3.0,66,0.00,,---,0.00,VWS V14.01,2013-02-21 06:30:00,
2013-02-21 01:34:00,22.9,13.3,30.18,NW,307,0.0,2.0,66,0.00,,---,0.00,VWS V14.01,2013-02-21 06:34:00,
2013-02-21 01:39:00,22.9,13.3,30.18,NW,307,0.0,2.0,66,0.00,,---,0.00,VWS V14.01,2013-02-21 06:39:00,
2013-02-21 01:44:00,22.8,13.5,30.18,NW,308,0.0,2.0,67,0.00,,---,0.00,VWS V14.01,2013-02-21 06:44:00,
2013-02-21 01:49:00,22.7,13.4,30.18,NW,308,0.0,2.0,67,0.00,,---,0.00,VWS V14.01,2013-02-21 06:49:00,
2013-02-21 01:54:00,22.7,13.1,30.18,NW,308,0.0,2.0,66,0.00,,---,0.00,VWS V14.01,2013-02-21 06:54:00,
2013-02-21 01:59:00,22.6,13.0,30.18,NW,308,2.0,3.0,66,0.00,,---,0.00,VWS V14.01,2013-02-21 06:59:00,
2013-02-21 02:04:00,22.8,13.2,30.18,NW,311,1.0,3.0,66,0.00,,---,0.00,VWS V14.01,2013-02-21 07:04:00,
2013-02-21 02:09:00,22.8,13.2,30.17,NW,311,3.0,3.0,66,0.00,,---,0.00,VWS V14.01,2013-02-21 07:09:00,
2013-02-21 02:14:00,22.9,12.9,30.17,NW,311,0.0,3.0,65,0.00,,---,0.00,VWS V14.01,2013-02-21 07:14:00,
2013-02-21 02:19:00,22.8,12.8,30.18,NW,311,0.0,3.0,65,0.00,,---,0.00,VWS V14.01,2013-02-21 07:19:00,
2013-02-21 02:24:00,22.7,12.7,30.18,NW,311,0.0,3.0,65,0.00,,---,0.00,VWS V14.01,2013-02-21 07:24:00,
2013-02-21 02:29:00,22.5,12.5,30.18,NW,311,0.0,3.0,65,0.00,,---,0.00,VWS V14.01,2013-02-21 07:29:00,
2013-02-21 02:34:00,22.3,12.3,30.18,NW,311,0.0,0.0,65,0.00,,---,0.00,VWS V14.01,2013-02-21 07:34:00,
2013-02-21 02:39:00,22.1,12.1,30.18,NW,311,0.0,1.0,65,0.00,,---,0.00,VWS V14.01,2013-02-21 07:39:00,
2013-02-21 02:44:00,22.1,12.1,30.18,NW,311,0.0,1.0,65,0.00,,---,0.00,VWS V14.01,2013-02-21 07:44:00,
2013-02-21 02:49:00,22.0,12.1,30.18,NW,311,0.0,1.0,65,0.00,,---,0.00,VWS V14.01,2013-02-21 07:49:00,
2013-02-21 02:54:00,22.1,12.1,30.18,NW,313,3.0,4.0,65,0.00,,---,0.00,VWS V14.01,2013-02-21 07:54:00,
2013-02-21 02:59:00,22.4,12.4,30.17,NW,315,0.0,4.0,65,0.00,,---,0.00,VWS V14.01,2013-02-21 07:59:00,
2013-02-21 03:04:00,22.4,12.4,30.17,NW,315,0.0,1.0,65,0.00,,---,0.00,VWS V14.01,2013-02-21 08:04:00,
2013-02-21 03:09:00,22.2,12.2,30.17,NW,315,0.0,1.0,65,0.00,,---,0.00,VWS V14.01,2013-02-21 08:09:00,
2013-02-21 03:14:00,22.0,12.4,30.18,NW,314,2.0,3.0,66,0.00,,---,0.00,VWS V14.01,2013-02-21 08:14:00,
2013-02-21 03:19:00,22.0,12.4,30.17,NW,315,2.0,3.0,66,0.00,,---,0.00,VWS V14.01,2013-02-21 08:19:00,
2013-02-21 03:24:00,22.1,12.5,30.17,NW,315,0.0,3.0,66,0.00,,---,0.00,VWS V14.01,2013-02-21 08:24:00,
2013-02-21 03:29:00,22.0,12.4,30.17,NW,315,1.0,3.0,66,0.00,,---,0.00,VWS V14.01,2013-02-21 08:29:00,
2013-02-21 03:34:00,21.8,12.2,30.18,NW,315,1.0,2.0,66,0.00,,---,0.00,VWS V14.01,2013-02-21 08:34:00,
2013-02-21 03:39:00,21.6,12.0,30.18,NW,314,0.0,2.0,66,0.00,,---,0.00,VWS V14.01,2013-02-21 08:39:00,
2013-02-21 03:44:00,21.3,11.7,30.18,NW,315,0.0,2.0,66,0.00,,---,0.00,VWS V14.01,2013-02-21 08:44:00,
2013-02-21 03:49:00,21.2,12.0,30.18,NW,314,0.0,2.0,67,0.00,,---,0.00,VWS V14.01,2013-02-21 08:49:00,
2013-02-21 03:54:00,21.0,11.8,30.18,NW,315,0.0,2.0,67,0.00,,---,0.00,VWS V14.01,2013-02-21 08:54:00,
2013-02-21 03:59:00,20.7,11.5,30.19,NW,315,0.0,2.0,67,0.00,,---,0.00,VWS V14.01,2013-02-21 08:59:00,
2013-02-21 04:04:00,20.4,11.5,30.19,NW,315,1.0,1.0,68,0.00,,---,0.00,VWS V14.01,2013-02-21 09:04:00,
2013-02-21 04:09:00,20.2,11.7,30.19,NW,314,0.0,1.0,69,0.00,,---,0.00,VWS V14.01,2013-02-21 09:09:00,
2013-02-21 04:14:00,20.0,11.5,30.20,NW,315,0.0,1.0,69,0.00,,---,0.00,VWS V14.01,2013-02-21 09:14:00,
2013-02-21 04:19:00,19.8,11.6,30.19,NW,314,0.0,1.0,70,0.00,,---,0.00,VWS V14.01,2013-02-21 09:19:00,
2013-02-21 04:24:00,19.8,11.6,30.20,NW,315,0.0,1.0,70,0.00,,---,0.00,VWS V14.01,2013-02-21 09:24:00,
2013-02-21 04:29:00,19.7,11.8,30.20,NW,315,0.0,1.0,71,0.00,,---,0.00,VWS V14.01,2013-02-21 09:29:00,
2013-02-21 04:34:00,19.7,11.5,30.19,NW,314,0.0,0.0,70,0.00,,---,0.00,VWS V14.01,2013-02-21 09:34:00,
2013-02-21 04:39:00,19.7,11.8,30.19,NW,315,1.0,1.0,71,0.00,,---,0.00,VWS V14.01,2013-02-21 09:39:00,
2013-02-21 04:44:00,19.6,11.7,30.20,NW,315,1.0,1.0,71,0.00,,---,0.00,VWS V14.01,2013-02-21 09:44:00,
2013-02-21 04:49:00,19.7,11.8,30.20,NW,314,1.0,3.0,71,0.00,,---,0.00,VWS V14.01,2013-02-21 09:49:00,
2013-02-21 04:54:00,19.7,11.8,30.20,NW,315,0.0,3.0,71,0.00,,---,0.00,VWS V14.01,2013-02-21 09:54:00,
2013-02-21 04:59:00,19.7,11.5,30.20,NW,314,0.0,3.0,70,0.00,,---,0.00,VWS V14.01,2013-02-21 09:59:00,
2013-02-21 05:04:00,19.4,11.6,30.21,NW,315,0.0,0.0,71,0.00,,---,0.00,VWS V14.01,2013-02-21 10:04:00,
2013-02-21 05:09:00,19.1,11.6,30.21,NW,315,0.0,0.0,72,0.00,,---,0.00,VWS V14.01,2013-02-21 10:09:00,
2013-02-21 05:14:00,18.9,11.4,30.21,NW,314,0.0,0.0,72,0.00,,---,0.00,VWS V14.01,2013-02-21 10:14:00,
2013-02-21 05:19:00,18.8,11.6,30.21,NW,314,1.0,2.0,73,0.00,,---,0.00,VWS V14.01,2013-02-21 10:19:00,
2013-02-21 05:24:00,19.6,12.1,30.21,NW,323,4.0,6.0,72,0.00,,---,0.00,VWS V14.01,2013-02-21 10:24:00,
2013-02-21 05:29:00,20.3,12.1,30.21,NNW,348,5.0,6.0,70,0.00,,---,0.00,VWS V14.01,2013-02-21 10:29:00,
2013-02-21 05:34:00,20.8,12.2,30.21,NNW,345,4.0,7.0,69,0.00,,---,0.00,VWS V14.01,2013-02-21 10:34:00,
2013-02-21 05:39:00,21.0,12.4,30.21,North,5,2.0,7.0,69,0.00,,---,0.00,VWS V14.01,2013-02-21 10:39:00,
2013-02-21 05:44:00,20.8,11.9,30.21,NNE,26,4.0,7.0,68,0.00,,---,0.00,VWS V14.01,2013-02-21 10:44:00,
2013-02-21 05:49:00,20.5,11.6,30.22,NNE,29,0.0,7.0,68,0.00,,---,0.00,VWS V14.01,2013-02-21 10:49:00,
2013-02-21 05:54:00,20.2,11.4,30.22,NNE,28,2.0,7.0,68,0.00,,---,0.00,VWS V14.01,2013-02-21 10:54:00,
2013-02-21 05:59:00,20.4,11.5,30.22,NNW,327,1.0,7.0,68,0.00,,---,0.00,VWS V14.01,2013-02-21 10:59:00,
2013-02-21 06:04:00,20.8,11.9,30.22,NNW,342,3.0,4.0,68,0.00,,---,0.00,VWS V14.01,2013-02-21 11:04:00,
2013-02-21 06:09:00,20.9,11.7,30.23,NNW,342,0.0,4.0,67,0.00,,---,0.00,VWS V14.01,2013-02-21 11:09:00,
2013-02-21 06:14:00,20.6,11.7,30.23,North,9,1.0,7.0,68,0.00,,---,0.00,VWS V14.01,2013-02-21 11:14:00,
2013-02-21 06:19:00,20.5,11.6,30.23,North,9,0.0,7.0,68,0.00,,---,0.00,VWS V14.01,2013-02-21 11:19:00,
2013-02-21 06:24:00,20.0,11.1,30.23,North,9,0.0,7.0,68,0.00,,---,0.00,VWS V14.01,2013-02-21 11:24:00,
2013-02-21 06:29:00,19.7,11.2,30.24,North,9,0.0,7.0,69,0.00,,---,0.00,VWS V14.01,2013-02-21 11:29:00,
2013-02-21 06:34:00,19.4,10.9,30.24,North,9,0.0,1.0,69,0.00,,---,0.00,VWS V14.01,2013-02-21 11:34:00,
2013-02-21 06:39:00,19.3,11.1,30.24,North,360,1.0,3.0,70,0.00,,---,0.00,VWS V14.01,2013-02-21 11:39:00,
2013-02-21 06:44:00,19.5,11.3,30.24,North,9,1.0,3.0,70,0.00,,---,0.00,VWS V14.01,2013-02-21 11:44:00,
2013-02-21 06:49:00,19.7,11.5,30.24,North,9,0.0,3.0,70,0.00,,---,0.00,VWS V14.01,2013-02-21 11:49:00,
2013-02-21 06:54:00,19.7,11.2,30.24,North,9,0.0,3.0,69,0.00,,---,0.00,VWS V14.01,2013-02-21 11:54:00,
2013-02-21 06:59:00,19.6,11.1,30.24,North,9,2.0,3.0,69,0.00,,---,0.00,VWS V14.01,2013-02-21 11:59:00,
2013-02-21 07:04:00,19.6,11.4,30.25,North,9,1.0,2.0,70,0.00,,---,0.00,VWS V14.01,2013-02-21 12:04:00,
2013-02-21 07:09:00,19.6,11.1,30.24,North,9,2.0,3.0,69,0.00,,---,0.00,VWS V14.01,2013-02-21 12:09:00,
2013-02-21 07:14:00,19.7,11.2,30.24,North,9,0.0,3.0,69,0.00,,---,0.00,VWS V14.01,2013-02-21 12:14:00,
2013-02-21 07:19:00,19.7,11.2,30.25,North,9,0.0,3.0,69,0.00,,---,0.00,VWS V14.01,2013-02-21 12:19:00,
2013-02-21 07:24:00,19.7,11.2,30.25,North,9,1.0,3.0,69,0.00,,---,0.00,VWS V14.01,2013-02-21 12:24:00,
2013-02-21 07:29:00,20.0,11.5,30.25,North,9,1.0,3.0,69,0.00,,---,0.00,VWS V14.01,2013-02-21 12:29:00,
2013-02-21 07:34:00,20.5,11.6,30.25,North,9,0.0,2.0,68,0.00,,---,0.00,VWS V14.01,2013-02-21 12:34:00,
2013-02-21 07:39:00,20.8,11.9,30.26,North,9,0.0,2.0,68,0.00,,---,0.00,VWS V14.01,2013-02-21 12:39:00,
2013-02-21 07:44:00,21.1,11.9,30.26,North,9,2.0,2.0,67,0.00,,---,0.00,VWS V14.01,2013-02-21 12:44:00,
2013-02-21 07:49:00,21.5,11.9,30.26,North,9,0.0,2.0,66,0.00,,---,0.00,VWS V14.01,2013-02-21 12:49:00,
2013-02-21 07:54:00,21.8,12.2,30.26,North,9,1.0,2.0,66,0.00,,---,0.00,VWS V14.01,2013-02-21 12:54:00,
2013-02-21 07:59:00,22.1,12.5,30.26,North,9,1.0,2.0,66,0.00,,---,0.00,VWS V14.01,2013-02-21 12:59:00,
2013-02-21 08:04:00,22.4,13.1,30.26,North,9,1.0,2.0,67,0.00,,---,0.00,VWS V14.01,2013-02-21 13:04:00,
2013-02-21 08:09:00,22.4,13.8,30.26,West,267,1.0,4.0,69,0.00,,---,0.00,VWS V14.01,2013-02-21 13:09:00,
2013-02-21 08:14:00,22.5,13.9,30.27,SSW,213,2.0,4.0,69,0.00,,---,0.00,VWS V14.01,2013-02-21 13:14:00,
2013-02-21 08:19:00,22.8,13.8,30.27,SSW,200,4.0,4.0,68,0.00,,---,0.00,VWS V14.01,2013-02-21 13:19:00,
2013-02-21 08:24:00,23.2,14.2,30.26,WSW,237,3.0,5.0,68,0.00,,---,0.00,VWS V14.01,2013-02-21 13:24:00,
2013-02-21 08:29:00,23.6,13.9,30.26,South,186,5.0,7.0,66,0.00,,---,0.00,VWS V14.01,2013-02-21 13:29:00,
2013-02-21 08:34:00,23.9,13.9,30.26,SSW,192,1.0,3.0,65,0.00,,---,0.00,VWS V14.01,2013-02-21 13:34:00,
2013-02-21 08:39:00,24.4,13.6,30.26,South,184,3.0,5.0,63,0.00,,---,0.00,VWS V14.01,2013-02-21 13:39:00,
2013-02-21 08:44:00,24.8,13.6,30.26,SSW,208,2.0,6.0,62,0.00,,---,0.00,VWS V14.01,2013-02-21 13:44:00,
2013-02-21 08:49:00,25.1,13.6,30.26,SW,227,3.0,6.0,61,0.00,,---,0.00,VWS V14.01,2013-02-21 13:49:00,
2013-02-21 08:54:00,25.2,13.3,30.26,SSW,208,3.0,6.0,60,0.00,,---,0.00,VWS V14.01,2013-02-21 13:54:00,
2013-02-21 08:59:00,25.4,13.5,30.26,SW,226,5.0,6.0,60,0.00,,---,0.00,VWS V14.01,2013-02-21 13:59:00,
2013-02-21 09:04:00,25.6,13.7,30.26,South,169,3.0,7.0,60,0.00,,---,0.00,VWS V14.01,2013-02-21 14:04:00,
2013-02-21 09:09:00,25.7,13.8,30.27,WSW,240,2.0,8.0,60,0.00,,---,0.00,VWS V14.01,2013-02-21 14:09:00,
2013-02-21 09:14:00,25.9,13.9,30.26,SW,219,2.0,9.0,60,0.00,,---,0.00,VWS V14.01,2013-02-21 14:14:00,
2013-02-21 09:19:00,26.0,13.6,30.26,SW,228,1.0,9.0,59,0.00,,---,0.00,VWS V14.01,2013-02-21 14:19:00,
2013-02-21 09:24:00,25.8,13.5,30.27,West,279,2.0,9.0,59,0.00,,---,0.00,VWS V14.01,2013-02-21 14:24:00,
2013-02-21 09:28:00,25.7,13.4,30.27,WNW,291,4.0,9.0,59,0.00,,---,0.00,VWS V14.01,2013-02-21 14:28:00,
2013-02-21 09:33:00,25.6,12.9,30.27,West,268,5.0,5.0,58,0.00,,---,0.00,VWS V14.01,2013-02-21 14:33:00,
2013-02-21 09:38:00,25.8,13.5,30.27,West,263,2.0,5.0,59,0.00,,---,0.00,VWS V14.01,2013-02-21 14:38:00,
2013-02-21 09:43:00,26.3,13.6,30.27,SW,235,3.0,6.0,58,0.00,,---,0.00,VWS V14.01,2013-02-21 14:43:00,
2013-02-21 09:48:00,26.6,13.4,30.28,NW,320,2.0,6.0,57,0.00,,---,0.00,VWS V14.01,2013-02-21 14:48:00,
2013-02-21 09:53:00,26.6,13.4,30.27,NW,317,4.0,10.0,57,0.00,,---,0.00,VWS V14.01,2013-02-21 14:53:00,
2013-02-21 09:58:00,27.0,14.2,30.28,West,276,0.0,10.0,58,0.00,,---,0.00,VWS V14.01,2013-02-21 14:58:00,
2013-02-21 10:03:00,27.2,13.6,30.29,WSW,252,2.0,6.0,56,0.00,,---,0.00,VWS V14.01,2013-02-21 15:03:00,
2013-02-21 10:08:00,27.4,13.8,30.29,West,259,3.0,6.0,56,0.00,,---,0.00,VWS V14.01,2013-02-21 15:08:00,
2013-02-21 10:13:00,27.8,14.6,30.28,SSW,194,3.0,6.0,57,0.00,,---,0.00,VWS V14.01,2013-02-21 15:13:00,
2013-02-21 10:18:00,28.4,14.7,30.28,West,263,2.0,6.0,56,0.00,,---,0.00,VWS V14.01,2013-02-21 15:18:00,
2013-02-21 10:23:00,28.3,14.2,30.27,WSW,248,2.0,9.0,55,0.00,,---,0.00,VWS V14.01,2013-02-21 15:23:00,
2013-02-21 10:28:00,28.6,14.5,30.27,SSW,199,1.0,9.0,55,0.00,,---,0.00,VWS V14.01,2013-02-21 15:28:00,
2013-02-21 10:33:00,28.6,14.5,30.27,SW,235,4.0,5.0,55,0.00,,---,0.00,VWS V14.01,2013-02-21 15:33:00,
2013-02-21 10:38:00,28.4,14.3,30.27,South,183,5.0,10.0,55,0.00,,---,0.00,VWS V14.01,2013-02-21 15:38:00,
2013-02-21 10:43:00,28.8,15.1,30.26,SSW,194,7.0,10.0,56,0.00,,---,0.00,VWS V14.01,2013-02-21 15:43:00,
2013-02-21 10:48:00,29.1,15.0,30.27,SSE,164,7.0,11.0,55,0.00,,---,0.00,VWS V14.01,2013-02-21 15:48:00,
2013-02-21 10:53:00,29.0,14.4,30.27,SSW,195,3.0,13.0,54,0.00,,---,0.00,VWS V14.01,2013-02-21 15:53:00,
2013-02-21 10:58:00,29.6,15.4,30.27,South,184,6.0,13.0,55,0.00,,---,0.00,VWS V14.01,2013-02-21 15:58:00,
2013-02-21 11:03:00,29.7,15.5,30.27,South,175,9.0,9.0,55,0.00,,---,0.00,VWS V14.01,2013-02-21 16:03:00,
2013-02-21 11:08:00,30.4,15.8,30.27,South,184,8.0,10.0,54,0.00,,---,0.00,VWS V14.01,2013-02-21 16:08:00,
2013-02-21 11:13:00,30.7,16.0,30.27,WSW,238,3.0,12.0,54,0.00,,---,0.00,VWS V14.01,2013-02-21 16:13:00,
2013-02-21 11:18:00,31.2,16.1,30.27,NW,322,7.0,12.0,53,0.00,,---,0.00,VWS V14.01,2013-02-21 16:18:00,
2013-02-21 11:23:00,31.1,16.0,30.27,NNW,343,1.0,12.0,53,0.00,,---,0.00,VWS V14.01,2013-02-21 16:23:00,
2013-02-21 11:28:00,31.2,15.6,30.26,NW,313,3.0,12.0,52,0.00,,---,0.00,VWS V14.01,2013-02-21 16:28:00,
2013-02-21 11:33:00,31.4,15.4,30.26,NW,309,5.0,11.0,51,0.00,,---,0.00,VWS V14.01,2013-02-21 16:33:00,
2013-02-21 11:38:00,31.9,15.8,30.25,WNW,298,6.0,11.0,51,0.00,,---,0.00,VWS V14.01,2013-02-21 16:38:00,
2013-02-21 11:43:00,31.7,15.7,30.25,WNW,294,10.0,12.0,51,0.00,,---,0.00,VWS V14.01,2013-02-21 16:43:00,
2013-02-21 11:48:00,31.8,15.8,30.26,North,355,1.0,12.0,51,0.00,,---,0.00,VWS V14.01,2013-02-21 16:48:00,
2013-02-21 11:53:00,32.4,16.3,30.26,WNW,298,8.0,12.0,51,0.00,,---,0.00,VWS V14.01,2013-02-21 16:53:00,
2013-02-21 11:58:00,32.8,16.2,30.25,West,272,2.0,12.0,50,0.00,,---,0.00,VWS V14.01,2013-02-21 16:58:00,
2013-02-21 12:03:00,33.2,16.6,30.25,NW,313,7.0,10.0,50,0.00,,---,0.00,VWS V14.01,2013-02-21 17:03:00,
2013-02-21 12:08:00,33.2,17.0,30.25,NW,316,7.0,12.0,51,0.00,,---,0.00,VWS V14.01,2013-02-21 17:08:00,
2013-02-21 12:13:00,32.8,15.8,30.25,West,276,3.0,12.0,49,0.00,,---,0.00,VWS V14.01,2013-02-21 17:13:00,
2013-02-21 12:18:00,33.5,17.3,30.25,West,259,6.0,12.0,51,0.00,,---,0.00,VWS V14.01,2013-02-21 17:18:00,
2013-02-21 12:23:00,33.5,16.4,30.25,NW,323,5.0,12.0,49,0.00,,---,0.00,VWS V14.01,2013-02-21 17:23:00,
2013-02-21 12:28:00,34.1,17.9,30.25,SW,227,3.0,12.0,51,0.00,,---,0.00,VWS V14.01,2013-02-21 17:28:00,
2013-02-21 12:33:00,34.8,17.1,30.25,SW,215,3.0,4.0,48,0.00,,---,0.00,VWS V14.01,2013-02-21 17:33:00,
2013-02-21 12:38:00,35.3,17.1,30.24,South,178,3.0,7.0,47,0.00,,---,0.00,VWS V14.01,2013-02-21 17:38:00,
2013-02-21 12:43:00,35.5,17.3,30.23,SSW,210,1.0,7.0,47,0.00,,---,0.00,VWS V14.01,2013-02-21 17:43:00,
2013-02-21 12:48:00,35.7,17.0,30.23,SW,230,1.0,7.0,46,0.00,,---,0.00,VWS V14.01,2013-02-21 17:48:00,
2013-02-21 12:53:00,36.0,17.2,30.23,West,261,0.0,7.0,46,0.00,,---,0.00,VWS V14.01,2013-02-21 17:53:00,
2013-02-21 12:58:00,36.0,16.7,30.23,NNW,330,1.0,7.0,45,0.00,,---,0.00,VWS V14.01,2013-02-21 17:58:00,
2013-02-21 13:03:00,36.0,17.2,30.23,WNW,292,2.0,8.0,46,0.00,,---,0.00,VWS V14.01,2013-02-21 18:03:00,
2013-02-21 13:08:00,36.3,17.5,30.22,NW,307,3.0,8.0,46,0.00,,---,0.00,VWS V14.01,2013-02-21 18:08:00,
2013-02-21 13:13:00,36.9,18.1,30.22,WSW,254,6.0,8.0,46,0.00,,---,0.00,VWS V14.01,2013-02-21 18:13:00,
2013-02-21 13:18:00,37.1,17.7,30.22,SSW,194,1.0,8.0,45,0.00,,---,0.00,VWS V14.01,2013-02-21 18:18:00,
2013-02-21 13:23:00,36.6,16.8,30.22,NW,323,3.0,10.0,44,0.00,,---,0.00,VWS V14.01,2013-02-21 18:23:00,
2013-02-21 13:28:00,36.5,17.2,30.21,WNW,300,0.0,10.0,45,0.00,,---,0.00,VWS V14.01,2013-02-21 18:28:00,
2013-02-21 13:33:00,37.0,17.1,30.22,SSW,198,1.0,7.0,44,0.00,,---,0.00,VWS V14.01,2013-02-21 18:33:00,
2013-02-21 13:38:00,37.1,17.2,30.22,SW,229,2.0,7.0,44,0.00,,---,0.00,VWS V14.01,2013-02-21 18:38:00,
2013-02-21 13:43:00,37.6,17.7,30.21,WSW,257,3.0,7.0,44,0.00,,---,0.00,VWS V14.01,2013-02-21 18:43:00,
2013-02-21 13:48:00,37.7,17.8,30.21,WNW,303,4.0,8.0,44,0.00,,---,0.00,VWS V14.01,2013-02-21 18:48:00,
2013-02-21 13:53:00,37.8,17.9,30.22,WNW,303,3.0,8.0,44,0.00,,---,0.00,VWS V14.01,2013-02-21 18:53:00,
2013-02-21 13:58:00,38.1,18.1,30.21,WNW,299,3.0,8.0,44,0.00,,---,0.00,VWS V14.01,2013-02-21 18:58:00,
2013-02-21 14:03:00,38.4,17.9,30.21,WSW,255,3.0,5.0,43,0.00,,---,0.00,VWS V14.01,2013-02-21 19:03:00,
2013-02-21 14:08:00,39.0,19.0,30.21,WNW,293,3.0,7.0,44,0.00,,---,0.00,VWS V14.01,2013-02-21 19:08:00,
2013-02-21 14:13:00,39.0,18.4,30.21,WNW,303,3.0,7.0,43,0.00,,---,0.00,VWS V14.01,2013-02-21 19:13:00,
2013-02-21 14:18:00,38.9,18.9,30.21,NNW,330,3.0,9.0,44,0.00,,---,0.00,VWS V14.01,2013-02-21 19:18:00,
2013-02-21 14:23:00,38.7,18.7,30.21,WNW,294,3.0,14.0,44,0.00,,---,0.00,VWS V14.01,2013-02-21 19:23:00,
2013-02-21 14:28:00,38.6,19.1,30.20,NW,315,5.0,14.0,45,0.00,,---,0.00,VWS V14.01,2013-02-21 19:28:00,
2013-02-21 14:33:00,38.7,18.7,30.21,NNE,15,6.0,6.0,44,0.00,,---,0.00,VWS V14.01,2013-02-21 19:33:00,
2013-02-21 14:38:00,38.6,18.6,30.21,North,360,5.0,12.0,44,0.00,,---,0.00,VWS V14.01,2013-02-21 19:38:00,
2013-02-21 14:43:00,38.2,18.2,30.22,North,10,4.0,15.0,44,0.00,,---,0.00,VWS V14.01,2013-02-21 19:43:00,
2013-02-21 14:48:00,38.3,18.3,30.22,NNE,19,5.0,15.0,44,0.00,,---,0.00,VWS V14.01,2013-02-21 19:48:00,
2013-02-21 14:53:00,38.2,18.2,30.21,NNE,13,6.0,15.0,44,0.00,,---,0.00,VWS V14.01,2013-02-21 19:53:00,
2013-02-21 14:58:00,38.6,19.1,30.21,NW,320,4.0,15.0,45,0.00,,---,0.00,VWS V14.01,2013-02-21 19:58:00,
2013-02-21 15:03:00,38.7,19.2,30.22,North,9,4.0,11.0,45,0.00,,---,0.00,VWS V14.01,2013-02-21 20:03:00,
2013-02-21 15:08:00,38.8,19.3,30.21,North,9,8.0,15.0,45,0.00,,---,0.00,VWS V14.01,2013-02-21 20:08:00,
2013-02-21 15:13:00,38.4,18.9,30.22,NW,311,6.0,15.0,45,0.00,,---,0.00,VWS V14.01,2013-02-21 20:13:00,
2013-02-21 15:18:00,38.2,19.3,30.22,North,360,5.0,15.0,46,0.00,,---,0.00,VWS V14.01,2013-02-21 20:18:00,
2013-02-21 15:23:00,38.5,19.5,30.22,NNW,331,5.0,15.0,46,0.00,,---,0.00,VWS V14.01,2013-02-21 20:23:00,
2013-02-21 15:28:00,38.5,19.0,30.21,NW,322,6.0,15.0,45,0.00,,---,0.00,VWS V14.01,2013-02-21 20:28:00,
2013-02-21 15:33:00,38.5,19.0,30.21,NNW,343,4.0,9.0,45,0.00,,---,0.00,VWS V14.01,2013-02-21 20:33:00,
2013-02-21 15:38:00,38.6,19.1,30.20,NNW,343,5.0,11.0,45,0.00,,---,0.00,VWS V14.01,2013-02-21 20:38:00,
2013-02-21 15:43:00,38.8,19.8,30.22,NW,306,7.0,12.0,46,0.00,,---,0.00,VWS V14.01,2013-02-21 20:43:00,
2013-02-21 15:48:00,38.8,19.3,30.21,NW,314,5.0,12.0,45,0.00,,---,0.00,VWS V14.01,2013-02-21 20:48:00,
2013-02-21 15:53:00,38.9,19.4,30.21,NW,306,5.0,12.0,45,0.00,,---,0.00,VWS V14.01,2013-02-21 20:53:00,
2013-02-21 15:58:00,38.9,19.4,30.21,NW,313,1.0,12.0,45,0.00,,---,0.00,VWS V14.01,2013-02-21 20:58:00,
2013-02-21 16:03:00,39.1,19.6,30.22,NNW,336,4.0,6.0,45,0.00,,---,0.00,VWS V14.01,2013-02-21 21:03:00,
2013-02-21 16:08:00,39.2,19.7,30.22,North,349,6.0,9.0,45,0.00,,---,0.00,VWS V14.01,2013-02-21 21:08:00,
2013-02-21 16:13:00,38.8,18.8,30.23,North,355,9.0,9.0,44,0.00,,---,0.00,VWS V14.01,2013-02-21 21:13:00,
2013-02-21 16:18:00,38.6,19.1,30.23,ENE,65,4.0,12.0,45,0.00,,---,0.00,VWS V14.01,2013-02-21 21:18:00,
2013-02-21 16:23:00,38.6,19.1,30.23,NNW,340,8.0,12.0,45,0.00,,---,0.00,VWS V14.01,2013-02-21 21:23:00,
2013-02-21 16:28:00,38.7,20.2,30.23,North,360,11.0,12.0,47,0.00,,---,0.00,VWS V14.01,2013-02-21 21:28:00,
2013-02-21 16:33:00,38.6,19.6,30.23,North,360,5.0,9.0,46,0.00,,---,0.00,VWS V14.01,2013-02-21 21:33:00,
2013-02-21 16:38:00,38.7,19.7,30.24,WNW,300,6.0,10.0,46,0.00,,---,0.00,VWS V14.01,2013-02-21 21:38:00,
2013-02-21 16:43:00,38.5,19.0,30.25,North,351,4.0,11.0,45,0.00,,---,0.00,VWS V14.01,2013-02-21 21:43:00,
2013-02-21 16:48:00,38.3,19.4,30.25,WNW,301,10.0,11.0,46,0.00,,---,0.00,VWS V14.01,2013-02-21 21:48:00,
2013-02-21 16:53:00,38.3,19.4,30.26,NW,317,4.0,13.0,46,0.00,,---,0.00,VWS V14.01,2013-02-21 21:53:00,
2013-02-21 16:58:00,38.1,19.2,30.26,NW,317,6.0,13.0,46,0.00,,---,0.00,VWS V14.01,2013-02-21 21:58:00,
2013-02-21 17:03:00,37.9,19.0,30.26,NW,315,9.0,12.0,46,0.00,,---,0.00,VWS V14.01,2013-02-21 22:03:00,
2013-02-21 17:08:00,37.5,19.1,30.26,NW,325,9.0,12.0,47,0.00,,---,0.00,VWS V14.01,2013-02-21 22:08:00,
2013-02-21 17:13:00,37.4,19.0,30.26,North,360,6.0,12.0,47,0.00,,---,0.00,VWS V14.01,2013-02-21 22:13:00,
2013-02-21 17:18:00,37.3,18.9,30.26,North,5,5.0,12.0,47,0.00,,---,0.00,VWS V14.01,2013-02-21 22:18:00,
2013-02-21 17:23:00,37.2,18.8,30.26,NNW,336,5.0,12.0,47,0.00,,---,0.00,VWS V14.01,2013-02-21 22:23:00,
2013-02-21 17:28:00,37.0,19.1,30.26,NNW,331,6.0,12.0,48,0.00,,---,0.00,VWS V14.01,2013-02-21 22:28:00,
2013-02-21 17:33:00,36.6,18.8,30.26,NNW,344,3.0,5.0,48,0.00,,---,0.00,VWS V14.01,2013-02-21 22:33:00,
2013-02-21 17:38:00,36.2,18.4,30.27,NW,319,6.0,10.0,48,0.00,,---,0.00,VWS V14.01,2013-02-21 22:38:00,
2013-02-21 17:43:00,35.8,18.5,30.27,NNW,337,6.0,10.0,49,0.00,,---,0.00,VWS V14.01,2013-02-21 22:43:00,
2013-02-21 17:48:00,35.5,18.7,30.28,NNW,331,7.0,10.0,50,0.00,,---,0.00,VWS V14.01,2013-02-21 22:48:00,
2013-02-21 17:53:00,35.2,18.4,30.28,NNW,338,5.0,10.0,50,0.00,,---,0.00,VWS V14.01,2013-02-21 22:53:00,
2013-02-21 17:58:00,34.9,18.2,30.28,NNW,344,7.0,10.0,50,0.00,,---,0.00,VWS V14.01,2013-02-21 22:58:00,
2013-02-21 18:03:00,34.5,18.2,30.29,NW,313,7.0,10.0,51,0.00,,---,0.00,VWS V14.01,2013-02-21 23:03:00,
2013-02-21 18:08:00,34.4,18.2,30.30,NW,325,4.0,10.0,51,0.00,,---,0.00,VWS V14.01,2013-02-21 23:08:00,
2013-02-21 18:13:00,34.3,18.1,30.30,NNW,334,7.0,10.0,51,0.00,,---,0.00,VWS V14.01,2013-02-21 23:13:00,
2013-02-21 18:18:00,34.0,18.2,30.30,NNW,329,5.0,10.0,52,0.00,,---,0.00,VWS V14.01,2013-02-21 23:18:00,
2013-02-21 18:23:00,33.8,18.5,30.31,NNW,333,5.0,10.0,53,0.00,,---,0.00,VWS V14.01,2013-02-21 23:23:00,
2013-02-21 18:28:00,33.5,18.2,30.31,NNW,333,5.0,10.0,53,0.00,,---,0.00,VWS V14.01,2013-02-21 23:28:00,
2013-02-21 18:33:00,33.2,18.4,30.31,NNW,340,2.0,6.0,54,0.00,,---,0.00,VWS V14.01,2013-02-21 23:33:00,
2013-02-21 18:38:00,33.1,18.3,30.32,NW,311,6.0,6.0,54,0.00,,---,0.00,VWS V14.01,2013-02-21 23:38:00,
2013-02-21 18:42:00,33.1,18.3,30.32,NW,323,2.0,6.0,54,0.00,,---,0.00,VWS V14.01,2013-02-21 23:42:00,
2013-02-21 18:47:00,33.1,18.3,30.32,North,11,3.0,6.0,54,0.00,,---,0.00,VWS V14.01,2013-02-21 23:47:00,
2013-02-21 18:52:00,32.9,18.1,30.33,NNW,346,1.0,6.0,54,0.00,,---,0.00,VWS V14.01,2013-02-21 23:52:00,
2013-02-21 18:57:00,32.5,18.1,30.33,NNW,336,5.0,6.0,55,0.00,,---,0.00,VWS V14.01,2013-02-21 23:57:00,
2013-02-21 19:02:00,32.4,18.0,30.33,NNE,12,1.0,5.0,55,0.00,,---,0.00,VWS V14.01,2013-02-22 00:02:00,
2013-02-21 19:07:00,32.0,18.1,30.34,ENE,68,1.0,5.0,56,0.00,,---,0.00,VWS V14.01,2013-02-22 00:07:00,
2013-02-21 19:12:00,31.5,18.0,30.33,ENE,68,2.0,5.0,57,0.00,,---,0.00,VWS V14.01,2013-02-22 00:12:00,
2013-02-21 19:17:00,31.1,17.7,30.33,ENE,68,4.0,5.0,57,0.00,,---,0.00,VWS V14.01,2013-02-22 00:17:00,
2013-02-21 19:22:00,30.9,17.9,30.33,ENE,69,1.0,5.0,58,0.00,,---,0.00,VWS V14.01,2013-02-22 00:22:00,
2013-02-21 19:27:00,30.3,18.1,30.33,ENE,69,1.0,5.0,60,0.00,,---,0.00,VWS V14.01,2013-02-22 00:27:00,
2013-02-21 19:32:00,29.9,18.1,30.33,ENE,68,1.0,2.0,61,0.00,,---,0.00,VWS V14.01,2013-02-22 00:32:00,
2013-02-21 19:37:00,29.8,18.0,30.33,ENE,69,2.0,2.0,61,0.00,,---,0.00,VWS V14.01,2013-02-22 00:37:00,
2013-02-21 19:42:00,29.7,17.9,30.33,ENE,69,0.0,2.0,61,0.00,,---,0.00,VWS V14.01,2013-02-22 00:42:00,
2013-02-21 19:47:00,29.7,17.9,30.34,ENE,69,0.0,2.0,61,0.00,,---,0.00,VWS V14.01,2013-02-22 00:47:00,
2013-02-21 19:52:00,29.6,17.4,30.34,ENE,69,1.0,2.0,60,0.00,,---,0.00,VWS V14.01,2013-02-22 00:52:00,
2013-02-21 19:57:00,29.5,18.1,30.34,ENE,69,0.0,2.0,62,0.00,,---,0.00,VWS V14.01,2013-02-22 00:57:00,
2013-02-21 20:02:00,29.3,18.3,30.34,ENE,68,0.0,2.0,63,0.00,,---,0.00,VWS V14.01,2013-02-22 01:02:00,
2013-02-21 20:07:00,29.0,18.4,30.34,ENE,69,1.0,2.0,64,0.00,,---,0.00,VWS V14.01,2013-02-22 01:07:00,
2013-02-21 20:12:00,28.6,18.3,30.33,ENE,68,1.0,2.0,65,0.00,,---,0.00,VWS V14.01,2013-02-22 01:12:00,
2013-02-21 20:17:00,27.9,18.4,30.34,ENE,69,0.0,2.0,67,0.00,,---,0.00,VWS V14.01,2013-02-22 01:17:00,
2013-02-21 20:22:00,27.5,18.3,30.34,ENE,69,1.0,3.0,68,0.00,,---,0.00,VWS V14.01,2013-02-22 01:22:00,
2013-02-21 20:27:00,27.5,18.0,30.35,ENE,69,1.0,3.0,67,0.00,,---,0.00,VWS V14.01,2013-02-22 01:27:00,
2013-02-21 20:32:00,27.8,17.9,30.35,ENE,69,2.0,2.0,66,0.00,,---,0.00,VWS V14.01,2013-02-22 01:32:00,
2013-02-21 20:37:00,28.4,17.8,30.34,ENE,68,2.0,3.0,64,0.00,,---,0.00,VWS V14.01,2013-02-22 01:37:00,
2013-02-21 20:42:00,28.8,18.2,30.34,ENE,68,2.0,4.0,64,0.00,,---,0.00,VWS V14.01,2013-02-22 01:42:00,
2013-02-21 20:47:00,28.7,18.1,30.35,ENE,69,0.0,4.0,64,0.00,,---,0.00,VWS V14.01,2013-02-22 01:47:00,
2013-02-21 20:52:00,28.5,18.2,30.35,ENE,69,1.0,4.0,65,0.00,,---,0.00,VWS V14.01,2013-02-22 01:52:00,
2013-02-21 20:57:00,28.8,18.2,30.35,ENE,68,2.0,4.0,64,0.00,,---,0.00,VWS V14.01,2013-02-22 01:57:00,
2013-02-21 21:02:00,28.9,17.9,30.34,ENE,68,0.0,0.0,63,0.00,,---,0.00,VWS V14.01,2013-02-22 02:02:00,
2013-02-21 21:07:00,28.9,17.9,30.34,ENE,68,0.0,2.0,63,0.00,,---,0.00,VWS V14.01,2013-02-22 02:07:00,
2013-02-21 21:12:00,29.1,17.7,30.35,ENE,68,2.0,4.0,62,0.00,,---,0.00,VWS V14.01,2013-02-22 02:12:00,
2013-02-21 21:17:00,29.1,17.7,30.35,North,355,3.0,5.0,62,0.00,,---,0.00,VWS V14.01,2013-02-22 02:17:00,
2013-02-21 21:22:00,28.9,17.9,30.35,North,355,3.0,5.0,63,0.00,,---,0.00,VWS V14.01,2013-02-22 02:22:00,
2013-02-21 21:27:00,28.7,18.1,30.35,NNW,347,3.0,5.0,64,0.00,,---,0.00,VWS V14.01,2013-02-22 02:27:00,
2013-02-21 21:32:00,28.4,18.1,30.35,NNW,347,2.0,4.0,65,0.00,,---,0.00,VWS V14.01,2013-02-22 02:32:00,
2013-02-21 21:37:00,28.3,18.1,30.36,NNW,346,2.0,4.0,65,0.00,,---,0.00,VWS V14.01,2013-02-22 02:37:00,
2013-02-21 21:42:00,28.3,18.1,30.36,NNW,346,2.0,4.0,65,0.00,,---,0.00,VWS V14.01,2013-02-22 02:42:00,
2013-02-21 21:47:00,28.3,18.1,30.36,NNW,347,2.0,4.0,65,0.00,,---,0.00,VWS V14.01,2013-02-22 02:47:00,
2013-02-21 21:52:00,28.3,17.7,30.36,NNW,346,0.0,4.0,64,0.00,,---,0.00,VWS V14.01,2013-02-22 02:52:00,
2013-02-21 21:57:00,28.1,17.9,30.36,NNW,346,0.0,4.0,65,0.00,,---,0.00,VWS V14.01,2013-02-22 02:57:00,
2013-02-21 22:02:00,28.0,17.8,30.36,NNW,347,1.0,1.0,65,0.00,,---,0.00,VWS V14.01,2013-02-22 03:02:00,
2013-02-21 22:07:00,27.9,18.0,30.36,NNW,346,0.0,2.0,66,0.00,,---,0.00,VWS V14.01,2013-02-22 03:07:00,
2013-02-21 22:12:00,27.9,17.7,30.35,NNW,346,1.0,2.0,65,0.00,,---,0.00,VWS V14.01,2013-02-22 03:12:00,
2013-02-21 22:17:00,27.9,17.7,30.35,NNW,346,0.0,3.0,65,0.00,,---,0.00,VWS V14.01,2013-02-22 03:17:00,
2013-02-21 22:22:00,27.8,17.6,30.35,NNW,346,1.0,3.0,65,0.00,,---,0.00,VWS V14.01,2013-02-22 03:22:00,
2013-02-21 22:27:00,27.8,17.9,30.36,NNW,343,4.0,5.0,66,0.00,,---,0.00,VWS V14.01,2013-02-22 03:27:00,
2013-02-21 22:32:00,27.9,18.0,30.35,NNW,339,5.0,6.0,66,0.00,,---,0.00,VWS V14.01,2013-02-22 03:32:00,
2013-02-21 22:37:00,27.9,18.0,30.35,NNW,346,6.0,10.0,66,0.00,,---,0.00,VWS V14.01,2013-02-22 03:37:00,
2013-02-21 22:42:00,27.9,18.0,30.35,NNE,22,4.0,10.0,66,0.00,,---,0.00,VWS V14.01,2013-02-22 03:42:00,
2013-02-21 22:47:00,27.9,18.0,30.35,NNE,28,3.0,10.0,66,0.00,,---,0.00,VWS V14.01,2013-02-22 03:47:00,
2013-02-21 22:52:00,27.8,17.9,30.34,NNE,28,0.0,10.0,66,0.00,,---,0.00,VWS V14.01,2013-02-22 03:52:00,
2013-02-21 22:57:00,27.6,17.7,30.34,NNE,28,4.0,10.0,66,0.00,,---,0.00,VWS V14.01,2013-02-22 03:57:00,
2013-02-21 23:02:00,27.6,17.7,30.34,NNE,28,3.0,5.0,66,0.00,,---,0.00,VWS V14.01,2013-02-22 04:02:00,
2013-02-21 23:07:00,27.6,17.7,30.34,NNE,27,3.0,5.0,66,0.00,,---,0.00,VWS V14.01,2013-02-22 04:07:00,
2013-02-21 23:12:00,27.6,17.7,30.34,NNE,21,2.0,5.0,66,0.00,,---,0.00,VWS V14.01,2013-02-22 04:12:00,
2013-02-21 23:17:00,27.6,17.7,30.33,NNE,15,4.0,5.0,66,0.00,,---,0.00,VWS V14.01,2013-02-22 04:17:00,
2013-02-21 23:22:00,27.7,17.8,30.33,NNE,30,5.0,6.0,66,0.00,,---,0.00,VWS V14.01,2013-02-22 04:22:00,
2013-02-21 23:27:00,27.7,17.8,30.33,NNE,15,5.0,6.0,66,0.00,,---,0.00,VWS V14.01,2013-02-22 04:27:00,
2013-02-21 23:32:00,27.6,17.7,30.33,NNE,15,2.0,5.0,66,0.00,,---,0.00,VWS V14.01,2013-02-22 04:32:00,
2013-02-21 23:37:00,27.6,17.7,30.33,NNE,13,3.0,5.0,66,0.00,,---,0.00,VWS V14.01,2013-02-22 04:37:00,
2013-02-21 23:42:00,27.6,17.7,30.33,NNE,13,1.0,5.0,66,0.00,,---,0.00,VWS V14.01,2013-02-22 04:42:00,
2013-02-21 23:47:00,27.6,17.7,30.34,North,11,2.0,5.0,66,0.00,,---,0.00,VWS V14.01,2013-02-22 04:47:00,
2013-02-21 23:52:00,27.6,18.1,30.34,NNE,28,2.0,5.0,67,0.00,,---,0.00,VWS V14.01,2013-02-22 04:52:00,
2013-02-21 23:57:00,27.5,17.6,30.34,NNE,28,1.0,5.0,66,0.00,,---,0.00,VWS V14.01,2013-02-22 04:57:00,